This is the latest recevied weather packets stored in our database for station/object W4MLN-3. If no packets are shown the sender has not sent any weather packets the latest 10 day(s).
| Time | Temp. | Humidity | Pressure | Rain* | Wind** | Luminosity | Snow |
|---|---|---|---|---|---|---|---|
| 1787684403 | 25° C | 63% | 1020.5 hPa | 0 mm | - | - | - |
| 1787684104 | 24.44° C | 66% | 1020.5 hPa | 0 mm | - | - | - |
| 1787683803 | 24.44° C | 64% | 1020.6 hPa | 0 mm | - | - | - |
| 1787683503 | 23.89° C | 65% | 1020.7 hPa | 0 mm | - | - | - |
| 1787683203 | 23.89° C | 67% | 1020.7 hPa | 0 mm | - | - | - |
| 1787682903 | 23.33° C | 67% | 1020.8 hPa | 0 mm | - | - | - |
| 1787682603 | 23.89° C | 65% | 1020.8 hPa | 0 mm | - | - | - |
| 1787682303 | 23.89° C | 66% | 1020.8 hPa | 0 mm | - | - | - |
| 1787682003 | 23.89° C | 66% | 1020.8 hPa | 0 mm | - | - | - |
| 1787681725 | 23.89° C | 66% | 1020.9 hPa | 0 mm | - | - | - |
| 1787681403 | 23.89° C | 65% | 1020.9 hPa | 0 mm | - | - | - |
| 1787681104 | 23.89° C | 64% | 1021 hPa | 0 mm | - | - | - |
| 1787680803 | 24.44° C | 64% | 1021 hPa | 0 mm | - | - | - |
| 1787680503 | 24.44° C | 62% | 1021 hPa | 0 mm | - | - | - |
| 1787680205 | 24.44° C | 61% | 1021 hPa | 0 mm | - | - | - |
| 1787679903 | 25.56° C | 59% | 1021.2 hPa | 0 mm | - | - | - |
| 1787679604 | 25.56° C | 61% | 1021.2 hPa | 0 mm | - | - | - |
| 1787679303 | 25.56° C | 60% | 1021.2 hPa | 0 mm | - | - | - |
| 1787679003 | 25.56° C | 61% | 1021.3 hPa | 0 mm | - | - | - |
| 1787678703 | 25.56° C | 59% | 1021.2 hPa | 0 mm | - | - | - |
| 1787678404 | 25.56° C | 59% | 1021.2 hPa | 0 mm | - | - | - |
| 1787678103 | 25.56° C | 61% | 1021.1 hPa | 0 mm | - | - | - |
| 1787677803 | 25.56° C | 63% | 1021.2 hPa | 0 mm | - | - | - |
| 1787677503 | 25.56° C | 57% | 1021.2 hPa | 0 mm | - | - | - |
| 1787677203 | 26.11° C | 55% | 1021.3 hPa | 0 mm | - | - | - |
* Rain latest hour (hover to see other rain measurements)
** Current wind speed in m/s (hover to see current wind gust speed)